TimeEST,TemperatureF,Dew PointF,Humidity,Sea Level PressureIn,VisibilityMPH,Wind Direction,Wind SpeedMPH,Gust SpeedMPH,PrecipitationIn,Events,Conditions,WindDirDegrees,DateUTC
12:52 AM,32.0,26.1,79,30.36,8.0,ENE,3.5,-,N/A,,Clear,70,2012-11-15 05:52:00
1:52 AM,33.1,26.1,75,30.35,8.0,NNE,3.5,-,N/A,,Clear,20,2012-11-15 06:52:00
2:52 AM,28.9,26.1,89,30.34,6.0,North,6.9,-,N/A,,Clear,360,2012-11-15 07:52:00
3:52 AM,28.9,25.0,85,30.32,6.0,NNE,4.6,-,N/A,,Clear,20,2012-11-15 08:52:00
4:52 AM,28.9,24.1,82,30.35,6.0,NNE,3.5,-,N/A,,Haze,30,2012-11-15 09:52:00
5:52 AM,30.9,26.1,82,30.35,6.0,NE,4.6,-,N/A,,Haze,50,2012-11-15 10:52:00
6:52 AM,30.0,26.1,85,30.36,5.0,Calm,Calm,-,N/A,,Clear,0,2012-11-15 11:52:00
7:52 AM,28.9,25.0,85,30.38,2.5,NNE,3.5,-,N/A,Fog,Partly Cloudy,20,2012-11-15 12:52:00
8:07 AM,28.4,26.6,93,30.36,3.0,NNW,4.6,-,N/A,Fog,Scattered Clouds,340,2012-11-15 13:07:00
8:38 AM,30.2,26.6,86,30.37,5.0,North,4.6,-,N/A,,Scattered Clouds,350,2012-11-15 13:38:00
8:52 AM,32.0,27.0,82,30.38,6.0,North,3.5,-,N/A,,Scattered Clouds,10,2012-11-15 13:52:00
9:52 AM,37.0,28.0,70,30.39,7.0,Calm,Calm,-,N/A,,Scattered Clouds,0,2012-11-15 14:52:00
10:52 AM,41.0,28.9,62,30.38,8.0,NNW,5.8,-,N/A,,Scattered Clouds,340,2012-11-15 15:52:00
11:52 AM,43.0,28.0,56,30.37,9.0,Calm,Calm,-,N/A,,Mostly Cloudy,0,2012-11-15 16:52:00
12:52 PM,44.1,28.9,55,30.35,9.0,Calm,Calm,-,N/A,,Mostly Cloudy,0,2012-11-15 17:52:00
1:52 PM,46.9,28.0,48,30.34,10.0,Variable,4.6,-,N/A,,Mostly Cloudy,0,2012-11-15 18:52:00
2:52 PM,48.0,28.0,46,30.32,10.0,North,3.5,-,N/A,,Overcast,350,2012-11-15 19:52:00
3:52 PM,46.9,28.0,48,30.32,10.0,NNW,3.5,-,N/A,,Mostly Cloudy,340,2012-11-15 20:52:00
4:52 PM,45.0,28.9,53,30.33,10.0,NNW,4.6,-,N/A,,Overcast,340,2012-11-15 21:52:00
5:52 PM,43.0,28.0,56,30.32,10.0,NNW,3.5,-,N/A,,Overcast,330,2012-11-15 22:52:00
6:52 PM,39.9,28.0,63,30.34,10.0,North,3.5,-,N/A,,Mostly Cloudy,350,2012-11-15 23:52:00
7:52 PM,39.0,28.0,65,30.34,10.0,NNW,4.6,-,N/A,,Scattered Clouds,330,2012-11-16 00:52:00
8:52 PM,39.9,28.0,63,30.35,9.0,North,3.5,-,N/A,,Scattered Clouds,10,2012-11-16 01:52:00
9:52 PM,36.0,28.0,73,30.36,8.0,North,5.8,-,N/A,,Partly Cloudy,360,2012-11-16 02:52:00
10:52 PM,35.1,28.0,76,30.36,7.0,North,4.6,-,N/A,,Clear,360,2012-11-16 03:52:00
11:52 PM,33.1,27.0,78,30.37,6.0,North,4.6,-,N/A,,Haze,360,2012-11-16 04:52:00